User: anonymous
Location: Unspecified
(0.0000°N, 0.0000°E)
Time: 04:02:50
(UTC+00:00)
Language:

N. Korean satellite - Orbit

View from above orbital plane
View from above orbital plane
View from above satellite
View from above satellite

Ground track
Ground track

The orbit data is extracted from the following two-line orbital elements,

1 39026U 12072A   14246.07453821  .00005487  00000-0  28801-3 0  1368
2 39026 097.3220 282.8330 0053057 156.4343 203.9337 15.14888735 95165
Epoch (UTC): 03 September 2014 01:47:20
Eccentricity: 0.0053057
inclination: 97.3220°
perigee height: 485 km
apogee height: 558 km
right ascension of ascending node: 282.8330°
argument of perigee: 156.4343°
revolutions per day: 15.14888735
mean anomaly at epoch: 203.9337°
orbit number at epoch: 9516

The dashed part of the orbit path shows where the satellite is in the earth's shadow,  

DLR